TimeMDT,TemperatureF,Dew PointF,Humidity,Sea Level PressureIn,VisibilityMPH,Wind Direction,Wind SpeedMPH,Gust SpeedMPH,PrecipitationIn,Events,Conditions,WindDirDegrees,DateUTC
12:55 AM,37.0,18.0,46,30.53,10.0,South,4.6,-,N/A,,Clear,170,2014-04-30 06:55:00
1:55 AM,34.0,18.0,52,30.54,10.0,Calm,Calm,-,N/A,,Clear,0,2014-04-30 07:55:00
2:55 AM,35.1,19.0,52,30.53,10.0,Calm,Calm,-,N/A,,Clear,0,2014-04-30 08:55:00
3:55 AM,30.9,18.0,59,30.55,10.0,North,3.5,-,N/A,,Clear,350,2014-04-30 09:55:00
5:55 AM,28.9,18.0,64,30.57,10.0,Calm,Calm,-,N/A,,Clear,0,2014-04-30 11:55:00
6:55 AM,28.9,18.0,64,30.58,10.0,Calm,Calm,-,N/A,,Clear,0,2014-04-30 12:55:00
7:55 AM,33.1,19.9,59,30.57,10.0,WSW,3.5,-,N/A,,Clear,240,2014-04-30 13:55:00
9:55 AM,44.1,19.9,38,30.54,10.0,SSE,4.6,-,N/A,,Clear,150,2014-04-30 15:55:00
10:55 AM,48.9,19.0,31,30.53,10.0,Calm,Calm,-,N/A,,Clear,0,2014-04-30 16:55:00
11:55 AM,54.0,18.0,24,30.50,10.0,Calm,Calm,-,N/A,,Clear,0,2014-04-30 17:55:00
12:55 PM,57.9,16.0,19,30.44,10.0,North,5.8,-,N/A,,Clear,350,2014-04-30 18:55:00
1:55 PM,61.0,15.1,17,30.41,10.0,Variable,3.5,-,N/A,,Clear,0,2014-04-30 19:55:00
3:55 PM,64.9,15.1,15,30.35,10.0,Calm,Calm,-,N/A,,Clear,0,2014-04-30 21:55:00
4:55 PM,68.0,14.0,12,30.31,10.0,NNE,3.5,-,N/A,,Clear,30,2014-04-30 22:55:00
5:55 PM,68.0,14.0,12,30.29,10.0,North,8.1,-,N/A,,Clear,10,2014-04-30 23:55:00
6:55 PM,66.0,16.0,15,30.29,10.0,NE,6.9,-,N/A,,Clear,40,2014-05-01 00:55:00
7:55 PM,63.0,19.0,18,30.28,10.0,NNE,6.9,-,N/A,,Clear,30,2014-05-01 01:55:00
8:55 PM,55.9,18.0,23,30.29,10.0,NW,8.1,-,N/A,,Clear,320,2014-05-01 02:55:00
9:55 PM,54.0,17.1,23,30.31,10.0,NNW,5.8,-,N/A,,Clear,330,2014-05-01 03:55:00
10:55 PM,48.0,18.0,30,30.31,10.0,Variable,3.5,-,N/A,,Clear,0,2014-05-01 04:55:00
11:55 PM,45.0,21.0,39,30.31,10.0,SSE,4.6,-,N/A,,Clear,160,2014-05-01 05:55:00